Flag for Iran Weather past 2 weeks in Esfahãn, Iran

Now
102 °F

Sunny.


Feels Like: 96 °F
Forecast: 70 / 101 °F
Wind: 9 mph from Southeast

Location: Esfahan

Current Time: Jul 23, 2014 at 2:50:38 PM

Latest Report: Jul 23, 2014 at 2:30 PM


Visibility: 10 mi

Pressure: 29.77 "Hg

Humidity: 5%

Dew point: 19 °F

Location of EsfahãnLocation

Historic Weather in Esfahãn — Graph

°F

Esfahãn temperature yesterday

Maximum temperature yesterday: 100 °F (at 3:00 PM)
Minimum temperature yesterday: 72 °F (at 5:30 AM)
Average temperature yesterday: 88 °F

Past Weeks' High & Low Weather Summary

 TemperatureHumidityPressure
High104 °F (Jul 12, 3:00 PM)34% (Jul 15, 6:30 AM)30.01 "Hg (Jul 15, 6:30 AM)
Low59 °F (Jul 15, 6:00 AM)4% (Jul 10, 4:00 PM)29.68 "Hg (Jul 21, 7:00 PM)
Average86 °F13%29.86 "Hg
* Reported Jul 8 1:30 PM — Jul 23 1:30 PM, Esfahãn, Weather by CustomWeather, © 2014

Note: Actual official high and low records may vary slightly from our data, if they occured in-between our weather recording intervals... More about our weather records

Advertising

Esfahãn weather history for previous 24 hours

 ConditionsComfort  
Time TempWeatherWind HumidityBarometerVisibility
1:30 PM
Jul 23
100 °FSunny.7 mph7%29.80 "Hg10 mi
10:30 AM93 °FSunny.7 mph11%29.83 "Hg4 mi
10:00 AM91 °FSunny.9 mph12%29.83 "Hg4 mi
9:30 AM88 °FSunny.12 mph15%29.83 "Hg4 mi
9:00 AM86 °FSunny.12 mph14%29.83 "Hg4 mi
8:30 AM82 °FSunny.12 mph16%29.83 "Hg4 mi
8:00 AM79 °FSunny.12 mph18%29.83 "Hg10 mi
7:30 AM73 °FClear.12 mph20%29.83 "Hg5 mi
7:00 AM72 °FClear.7 mph20%29.83 "Hg10 mi
6:30 AM73 °FClear.9 mph19%29.83 "Hg10 mi
5:30 AM73 °FClear.12 mph19%29.80 "Hg10 mi
5:00 AM75 °FClear.9 mph18%29.77 "Hg10 mi
4:30 AM75 °FClear.9 mph19%29.77 "Hg10 mi
3:30 AM77 °FClear.12 mph17%29.77 "Hg10 mi
9:30 PM
Jul 22
90 °FSunny.5 mph11%29.74 "Hg4 mi
9:00 PM90 °FSunny.5 mph11%29.74 "Hg4 mi
8:30 PM93 °FSunny.5 mph10%29.74 "Hg4 mi
8:00 PM95 °FSunny.5 mph9%29.74 "Hg4 mi
7:30 PM99 °FSunny.5 mph9%29.74 "Hg4 mi
7:00 PM99 °FSunny.5 mph7%29.74 "Hg4 mi
6:30 PM100 °FSunny.7 mph7%29.74 "Hg4 mi
6:00 PM100 °FSunny.No wind7%29.74 "Hg4 mi
5:30 PM100 °FSunny.5 mph7%29.74 "Hg4 mi
4:30 PM99 °FSunny.7 mph7%29.74 "Hg4 mi
4:00 PM100 °FSunny.5 mph7%29.74 "Hg4 mi
3:30 PM100 °FSunny.No wind7%29.77 "Hg5 mi
3:00 PM100 °FSunny.5 mph8%29.77 "Hg5 mi
2:30 PM99 °FSunny.9 mph8%29.77 "Hg10 mi
2:00 PM99 °FSunny.7 mph9%29.77 "Hg10 mi
Weather by CustomWeather, © 2014

See weather overviewHow to use our weather pages